This is the latest recevied weather packets stored in our database for station/object SR9NLI. If no packets are shown the sender has not sent any weather packets the latest 1 day(s).
| Time | Temp. | Humidity | Pressure | Rain* | Wind** | Luminosity | Snow |
|---|---|---|---|---|---|---|---|
| 1778028483 | 15.56° C | 100% | 948.1 hPa | - | 1.79 m/s, 177° | - | - |
| 1778028423 | 15.56° C | 100% | 948.2 hPa | - | 1.34 m/s, 179° | - | - |
| 1778028360 | 15.56° C | 100% | 948.2 hPa | - | 1.34 m/s, 194° | - | - |
| 1778028237 | 15.56° C | 100% | 948.1 hPa | - | 1.34 m/s, 206° | - | - |
| 1778028113 | 15.56° C | 100% | 948.2 hPa | - | 1.34 m/s, 202° | - | - |
| 1778028053 | 15.56° C | 100% | 948.1 hPa | - | 1.34 m/s, 210° | - | - |
| 1778027935 | 15.56° C | 100% | 948.3 hPa | - | 1.34 m/s, 195° | - | - |
| 1778027812 | 15.56° C | 100% | 948.2 hPa | - | 1.79 m/s, 191° | - | - |
| 1778027752 | 15.56° C | 100% | 948.2 hPa | - | 1.79 m/s, 191° | - | - |
| 1778027690 | 15.56° C | 100% | 948.1 hPa | - | 1.79 m/s, 192° | - | - |
| 1778027566 | 15.56° C | 100% | 948 hPa | - | 1.79 m/s, 186° | - | - |
| 1778027443 | 15.56° C | 100% | 948.2 hPa | - | 1.34 m/s, 188° | - | - |
| 1778027382 | 15.56° C | 100% | 948.1 hPa | - | 1.79 m/s, 193° | - | - |
| 1778027320 | 15.56° C | 100% | 948.1 hPa | - | 1.79 m/s, 183° | - | - |
| 1778027196 | 15.56° C | 100% | 948.2 hPa | - | 1.79 m/s, 178° | - | - |
| 1778027073 | 15.56° C | 100% | 948.1 hPa | - | 2.24 m/s, 184° | - | - |
| 1778026999 | 16.11° C | 100% | 948.1 hPa | - | 1.79 m/s, 186° | - | - |
| 1778026937 | 16.11° C | 100% | 948 hPa | - | 2.24 m/s, 183° | - | - |
| 1778026814 | 16.11° C | 100% | 948 hPa | - | 2.24 m/s, 185° | - | - |
| 1778026690 | 16.11° C | 100% | 948.1 hPa | - | 3.13 m/s, 173° | - | - |
| 1778026630 | 16.11° C | 100% | 948.1 hPa | - | 2.68 m/s, 170° | - | - |
| 1778026567 | 16.11° C | 100% | 948.1 hPa | - | 3.13 m/s, 171° | - | - |
| 1778026443 | 16.11° C | 100% | 948.2 hPa | - | 2.68 m/s, 172° | - | - |
| 1778026321 | 16.11° C | 100% | 948.2 hPa | - | 2.68 m/s, 175° | - | - |
| 1778026260 | 16.11° C | 100% | 948.2 hPa | - | 1.79 m/s, 178° | - | - |
* Rain since midnight (hover to see other rain measurements)
** Current wind speed in m/s (hover to see current wind gust speed)